Location: Lawrence
(38.9720°N, 95.2350°W)
Time: 00:42:29
(UTC-05:00)

Amateur Radio Satellites - All Passes

Search period start: 20 April 2014 00:12
Search period end: 21 April 2014 00:12
Location: Lawrence, 38.9720°N, 95.2350°W

Satellite Date Start Highest point End Downlink Frequencies (MHz)
Time Altitude Azimuth
FUNcube-1 20 Apr 00:14:43 00:17:26 17° 267° (W) 00:20:09 145.950 - 145.970 MHz USB
SO-50 20 Apr 00:21:18 00:25:31 33° 51° (NE) 00:29:46 436.795 FM
Sapphire 20 Apr 01:03:18 01:08:40 70° 115° (ESE) 01:14:04 437.095 MHz 1200 baud AX-25 AFSK
KITSAT 1 20 Apr 01:27:49 01:29:53 11° 98° (E) 01:31:57 435.175 FM
Oscar 16 20 Apr 01:36:42 01:38:29 12° 90° (E) 01:40:15 437.025 USB, Beacon 2401.1428
OPAL 20 Apr 01:43:49 01:46:05 13° 58° (ENE) 01:48:21 ?
PCSat 20 Apr 01:48:26 01:53:37 47° 303° (WNW) 01:58:51 145.825 MHz
SO-50 20 Apr 02:02:01 02:05:58 28° 247° (WSW) 02:09:58 436.795 FM
Uribyol 2 20 Apr 02:12:13 02:14:40 13° 91° (E) 02:17:06 436.500 FM
UOSAT-12 20 Apr 02:41:36 02:46:08 45° 54° (NE) 02:50:38 437.025 FM, 437.400 FM
Sapphire 20 Apr 02:48:53 02:52:37 19° 314° (NW) 02:56:23 437.095 MHz 1200 baud AX-25 AFSK
AO-27 20 Apr 02:50:57 02:55:33 32° 97° (E) 03:00:08 436.795 MHz FM
ITAMSAT 1 20 Apr 03:01:21 03:06:11 39° 98° (E) 03:11:00 435.822 SSB
AO-Echo 20 Apr 03:03:18 03:07:32 31° 96° (E) 03:11:41 ?
Oscar 19 20 Apr 03:04:45 03:09:59 84° 103° (ESE) 03:15:11 437.125 CW, 437.150 USB
Oscar 16 20 Apr 03:13:09 03:18:22 76° 285° (WNW) 03:23:33 437.025 USB, Beacon 2401.1428
KITSAT 1 20 Apr 03:15:46 03:23:48 70° 115° (ESE) 03:31:52 435.175 FM
OPAL 20 Apr 03:19:15 03:24:15 78° 255° (WSW) 03:29:23 ?
TMSAT-1 20 Apr 03:34:54 03:38:28 18° 92° (E) 03:42:02 436.925 FM
Uribyol 2 20 Apr 03:49:26 03:54:35 68° 286° (WNW) 03:59:43 436.500 FM
JAS-1B 20 Apr 03:57:21 04:00:12 14° 92° (E) 04:03:06 435.800 - 435.900 CW/SSB
UOSAT-12 20 Apr 04:22:34 04:25:58 20° 250° (WSW) 04:29:20 437.025 FM, 437.400 FM
Gurwin Techsat 1B 20 Apr 04:25:34 04:30:54 80° 103° (ESE) 04:36:12 435.225 FM
AO-27 20 Apr 04:30:33 04:34:58 29° 293° (WNW) 04:39:23 436.795 MHz FM
ITAMSAT 1 20 Apr 04:41:21 04:45:26 24° 294° (WNW) 04:49:31 435.822 SSB
AO-Echo 20 Apr 04:42:18 04:46:10 25° 293° (WNW) 04:49:59 ?
Oscar 19 20 Apr 04:46:36 04:48:35 12° 300° (WNW) 04:50:33 437.125 CW, 437.150 USB
Uosat F 20 Apr 05:00:29 05:05:14 42° 99° (E) 05:09:56 435.120 FM
KITSAT 1 20 Apr 05:12:58 05:19:51 30° 316° (NW) 05:26:47 435.175 FM
TMSAT-1 20 Apr 05:13:33 05:18:41 52° 288° (WNW) 05:23:47 436.925 FM
AO-40 20 Apr 05:37:47 11:10:53 39° 179° (S) 16:07:23 Beacon 2401.320
JAS-1B 20 Apr 05:45:47 05:51:24 66° 287° (WNW) 05:57:17 435.800 - 435.900 CW/SSB
AO-7 20 Apr 05:46:20 05:54:35 64° 104° (ESE) 06:02:49 29.400 - 29.500 MHz
STRAND 1 20 Apr 06:00:22 06:03:40 18° 63° (ENE) 06:06:59 ?
Gurwin Techsat 1B 20 Apr 06:07:45 06:10:09 13° 300° (WNW) 06:12:33 435.225 FM
Uosat F 20 Apr 06:39:59 06:43:43 22° 295° (WNW) 06:47:27 435.120 FM
RS-15 20 Apr 06:41:11 06:51:52 49° 110° (ESE) 07:02:10 29.354 - 29.394 USB, Beacon 29.352 USB
MaSat-1 20 Apr 07:14:40 07:17:30 37° 64° (ENE) 07:20:49 437.345 MHz
Hamsat 20 Apr 07:20:20 07:24:36 52° 100° (E) 07:28:51 145.90 MHz
STRAND 1 20 Apr 07:37:24 07:42:24 55° 259° (W) 07:47:26 ?
AO-7 20 Apr 07:40:00 07:46:47 29° 302° (WNW) 07:53:36 29.400 - 29.500 MHz
SO-67 20 Apr 08:15:44 08:19:01 37° 98° (E) 08:22:17 435.3500 MHz FM
JAS-2 20 Apr 08:19:33 08:24:57 63° 102° (ESE) 08:30:56 435.800 - 435.900 CW/SSB, 435.910 FM
PANSAT 20 Apr 08:50:32 08:52:04 12° 166° (SSE) 08:53:36 not established
RS-15 20 Apr 08:53:20 09:04:09 50° 312° (NW) 09:14:44 29.354 - 29.394 USB, Beacon 29.352 USB
PCSat 20 Apr 08:55:11 08:58:43 17° 45° (NE) 09:02:14 145.825 MHz
Hamsat 20 Apr 08:57:55 09:00:08 14° 295° (WNW) 09:02:21 145.90 MHz
HO-68 20 Apr 09:23:40 09:28:56 22° 93° (E) 09:34:10 435.675 MHz FM
SO-67 20 Apr 09:50:34 09:51:48 12° 293° (WNW) 09:53:03 435.3500 MHz FM
Sapphire 20 Apr 09:52:38 09:57:48 43° 56° (NE) 10:02:55 437.095 MHz 1200 baud AX-25 AFSK
JAS-2 20 Apr 10:06:16 10:09:40 17° 296° (WNW) 10:13:14 435.800 - 435.900 CW/SSB, 435.910 FM
Saudisat 1A 20 Apr 10:08:06 10:09:22 11° 107° (ESE) 10:10:38 436.775 MHz
PANSAT 20 Apr 10:29:01 10:31:37 17° 179° (S) 10:34:12 not established
Oscar 11 20 Apr 10:34:40 10:38:32 30° 97° (E) 10:42:23 145.825 FM, Beacon 2401.500 USB
PCSat 20 Apr 10:37:19 10:42:45 77° 244° (WSW) 10:48:08 145.825 MHz
HO-68 20 Apr 11:10:00 11:17:07 67° 290° (WNW) 11:24:13 435.675 MHz FM
KITSAT 1 20 Apr 11:10:45 11:17:40 30° 44° (NE) 11:24:31 435.175 FM
RS-15 20 Apr 11:12:45 11:20:05 19° 342° (NNW) 11:27:23 29.354 - 29.394 USB, Beacon 29.352 USB
Sapphire 20 Apr 11:36:36 11:40:57 25° 253° (WSW) 11:45:17 437.095 MHz 1200 baud AX-25 AFSK
Saudisat 1A 20 Apr 11:43:55 11:48:21 71° 303° (WNW) 11:52:50 436.775 MHz
FUNcube-1 20 Apr 12:03:08 12:07:25 84° 283° (WNW) 12:11:47 145.950 - 145.970 MHz USB
PANSAT 20 Apr 12:09:16 12:11:10 13° 192° (SSW) 12:13:04 not established
Oscar 11 20 Apr 12:11:10 12:14:33 22° 292° (WNW) 12:17:55 145.825 FM, Beacon 2401.500 USB
Oscar 19 20 Apr 12:44:41 12:46:57 13° 61° (ENE) 12:49:13 437.125 CW, 437.150 USB
Oscar 16 20 Apr 12:52:06 12:55:16 17° 63° (ENE) 12:58:27 437.025 USB, Beacon 2401.1428
HO-68 20 Apr 13:00:50 13:03:30 12° 308° (NW) 13:06:09 435.675 MHz FM
KITSAT 1 20 Apr 13:05:40 13:13:43 70° 245° (WSW) 13:21:41 435.175 FM
Saudisat 1A 20 Apr 13:27:58 13:28:47 10° 322° (NW) 13:29:36 436.775 MHz
Uribyol 2 20 Apr 13:28:42 13:32:18 20° 64° (ENE) 13:35:54 436.500 FM
RS-15 20 Apr 13:30:53 13:38:25 20° 20° (NNE) 13:45:57 29.354 - 29.394 USB, Beacon 29.352 USB
Oscar 10/S400 20 Apr 13:32:07 15:02:55 30° 263° (W) 18:27:38 145.825 - 145.975 CW/USB, Beacon 145.810 USB
AO-27 20 Apr 14:07:54 14:12:47 43° 70° (ENE) 14:17:41 436.795 MHz FM
Gurwin Techsat 1B 20 Apr 14:08:53 14:11:31 14° 61° (ENE) 14:14:09 435.225 FM
AO-Echo 20 Apr 14:14:37 14:19:27 39° 71° (ENE) 14:24:12 ?
ITAMSAT 1 20 Apr 14:18:10 14:23:11 53° 72° (ENE) 14:28:13 435.822 SSB
Oscar 19 20 Apr 14:20:28 14:25:35 78° 257° (WSW) 14:30:47 437.125 CW, 437.150 USB
Oscar 16 20 Apr 14:29:03 14:34:06 59° 259° (W) 14:39:13 437.025 USB, Beacon 2401.1428
SO-50 20 Apr 14:37:52 14:39:47 13° 108° (ESE) 14:41:41 436.795 FM
JAS-1B 20 Apr 14:41:42 14:46:05 17° 61° (ENE) 14:50:05 435.800 - 435.900 CW/SSB
TMSAT-1 20 Apr 14:54:24 14:58:42 26° 66° (ENE) 15:03:02 436.925 FM
AO-7 20 Apr 14:55:51 15:00:32 17° 50° (NE) 15:05:13 29.400 - 29.500 MHz
KITSAT 1 20 Apr 15:05:45 15:07:37 11° 262° (W) 15:09:28 435.175 FM
Uribyol 2 20 Apr 15:06:23 15:11:23 50° 260° (W) 15:16:24 436.500 FM
OPAL 20 Apr 15:30:40 15:35:16 31° 99° (E) 15:39:50 ?
ISS 20 Apr 15:33:12 15:36:32 86° 141° (SE) 15:39:54 145.800 FM
RS-15 20 Apr 15:43:24 15:54:05 54° 50° (NE) 16:04:58 29.354 - 29.394 USB, Beacon 29.352 USB
Gurwin Techsat 1B 20 Apr 15:45:31 15:50:49 75° 257° (WSW) 15:56:09 435.225 FM
AO-27 20 Apr 15:48:35 15:52:28 21° 266° (W) 15:56:22 436.795 MHz FM
AO-Echo 20 Apr 15:54:07 15:58:17 24° 265° (W) 16:02:24 ?
ITAMSAT 1 20 Apr 15:59:39 16:02:59 17° 268° (W) 16:06:19 435.822 SSB
Uosat F 20 Apr 16:12:32 16:17:23 52° 72° (ENE) 16:22:16 435.120 FM
SO-50 20 Apr 16:15:21 16:19:47 63° 304° (WNW) 16:24:16 436.795 FM
JAS-1B 20 Apr 16:27:50 16:36:06 89° 255° (WSW) 16:42:57 435.800 - 435.900 CW/SSB
TMSAT-1 20 Apr 16:33:33 16:38:25 37° 262° (W) 16:43:20 436.925 FM
AO-7 20 Apr 16:43:43 16:51:57 76° 70° (ENE) 17:00:14 29.400 - 29.500 MHz
UOSAT-12 20 Apr 16:53:19 16:56:15 17° 109° (ESE) 16:59:12 437.025 FM, 437.400 FM
OPAL 20 Apr 17:09:30 17:14:05 32° 294° (WNW) 17:18:38 ?
ISS 20 Apr 17:11:20 17:13:39 17° 338° (NNW) 17:15:59 145.800 FM
Uosat F 20 Apr 17:53:17 17:56:28 17° 267° (W) 17:59:39 435.120 FM
RS-15 20 Apr 17:56:07 18:06:10 44° 251° (WSW) 18:16:32 29.354 - 29.394 USB, Beacon 29.352 USB
Hamsat 20 Apr 18:12:59 18:16:42 31° 71° (ENE) 18:20:27 145.90 MHz
JAS-1B 20 Apr 18:23:05 18:27:06 15° 268° (W) 18:30:51 435.800 - 435.900 CW/SSB
UOSAT-12 20 Apr 18:31:33 18:35:58 50° 306° (NW) 18:40:30 437.025 FM, 437.400 FM
JAS-2 20 Apr 18:32:27 18:36:42 22° 66° (ENE) 18:40:42 435.800 - 435.900 CW/SSB, 435.910 FM
AO-7 20 Apr 18:39:29 18:45:26 22° 267° (W) 18:51:26 29.400 - 29.500 MHz
SO-67 20 Apr 18:50:18 18:51:39 12° 67° (ENE) 18:53:00 435.3500 MHz FM
STRAND 1 20 Apr 19:49:10 19:54:10 55° 101° (E) 19:59:09 ?
Hamsat 20 Apr 19:49:40 19:52:44 20° 266° (W) 19:55:50 145.90 MHz
HO-68 20 Apr 19:53:11 19:57:04 16° 54° (NE) 20:00:57 435.675 MHz FM
Saudisat 1A 20 Apr 20:11:58 20:16:22 64° 57° (ENE) 20:20:41 436.775 MHz
JAS-2 20 Apr 20:15:56 20:21:34 46° 260° (W) 20:26:44 435.800 - 435.900 CW/SSB, 435.910 FM
SO-67 20 Apr 20:21:12 20:24:27 36° 262° (W) 20:27:43 435.3500 MHz FM
ISS 20 Apr 20:27:18 20:29:25 16° 19° (NNE) 20:31:31 145.800 FM
MaSat-1 20 Apr 21:17:29 21:19:54 22° 111° (ESE) 21:22:06 437.345 MHz
Oscar 11 20 Apr 21:29:13 21:32:29 22° 68° (ENE) 21:35:47 145.825 FM, Beacon 2401.500 USB
STRAND 1 20 Apr 21:29:36 21:32:54 18° 297° (WNW) 21:36:12 ?
HO-68 20 Apr 21:36:34 21:43:41 83° 73° (ENE) 21:50:52 435.675 MHz FM
Saudisat 1A 20 Apr 21:53:44 21:55:23 12° 252° (WSW) 21:57:02 436.775 MHz
ISS 20 Apr 22:03:16 22:06:38 73° 37° (NE) 22:09:59 145.800 FM
MaSat-1 20 Apr 22:57:52 22:58:16 10° 302° (WNW) 22:58:40 437.345 MHz
FUNcube-1 20 Apr 22:58:38 23:02:48 66° 75° (ENE) 23:06:57 145.950 - 145.970 MHz USB
Oscar 11 20 Apr 23:04:41 23:08:30 31° 263° (W) 23:12:20 145.825 FM, Beacon 2401.500 USB
SO-50 20 Apr 23:09:26 23:11:22 12° 40° (NE) 23:13:18 436.795 FM
HO-68 20 Apr 23:27:56 23:32:07 16° 269° (W) 23:36:20 435.675 MHz FM
PCSat 20 Apr 23:37:01 23:40:14 16° 104° (ESE) 23:43:27 145.825 MHz
ISS 20 Apr 23:41:58 23:42:56 11° 233° (SW) 23:43:53 145.800 FM
